Regional Weather Roundup
Issued by NWS Albany, NY

Home | Current Version | Previous Version | Graphics & Text | Print | Product List | Glossary Off
Versions: 1 2 3 4 5 6 7 8 9 10 11 12 13 14 15 16 17 18 19 20 21 22 23 24 25 26 27 28 29 30 31 32 33 34 35 36 37 38 39 40 41 42 43 44 45 46 47 48 49 50

000
ASUS41 KALY 050610
RWRALY

NEW YORK STATE HOURLY WEATHER ROUNDUP
NATIONAL WEATHER SERVICE ALBANY NY
200 AM EDT WED AUG 05 2015

NOTE: "FAIR" INDICATES FEW OR NO CLOUDS BELOW 12,000 FEET WITH NO
SIGNIFICANT WEATHER AND/OR NO OBSTRUCTIONS TO VISIBILITY.

NYZ032-033-038>043-046>054-057>066-NYZ062>081-050700-
EAST


CITY           SKY/WX    TMP DP  RH WIND       PRES   REMARKS
ALBANY         PTCLDY    64  57  78 N5        29.91S
GLENS FALLS    MOCLDY    66  57  72 SW7       29.89F
POUGHKEEPSIE   CLEAR     64  60  87 CALM      29.90F
NEWBURGH       CLEAR     64  59  82 CALM      29.93
MONTGOMERY     PTCLDY    61  57  87 CALM      29.92F
WHITE PLAINS   PTCLDY    67  59  75 CALM      29.92R
ISLIP          PTCLDY    70  58  65 CALM      29.89S
NEW YORK CITY  PTCLDY    77  58  51 CALM      29.90F
CENTRAL PARK   PTCLDY    75  55  49 CALM      29.94S
$$

NYZ005>009-017-018-044>046-055-056-050700-
CENTRAL


CITY           SKY/WX    TMP DP  RH WIND       PRES   REMARKS
FULTON         MOCLDY    63  59  87 SW5       29.91F
SYRACUSE       LGT RAIN  64  62  94 SW3       29.91S
ROME           PTCLDY    61  59  93 CALM      29.93S
ELMIRA         MOCLDY    61  58  90 CALM      29.94F
BINGHAMTON     PTCLDY    60  56  86 SW5       29.96F
MONTICELLO     PTCLDY    59  55  88 CALM      29.97F
$$

NYZ026>034-041>043-050700-
NORTH


CITY           SKY/WX    TMP DP  RH WIND       PRES   REMARKS
WATERTOWN      MOCLDY    63  61  93 VRB3      29.89F
FORT DRUM      NOT AVBL
MASSENA        MOCLDY    60  58  92 SW6       29.86S
SARANAC LAKE   CLOUDY    57  53  86 W3        29.89F
PLATTSBURGH    CLOUDY    61  59  93 CALM      29.85S
$$

NYZ001>004-010>016-019>021-050700-
WEST


CITY           SKY/WX    TMP DP  RH WIND       PRES   REMARKS
NIAGARA FALLS  CLOUDY    63  59  87 W6        29.95R
BUFFALO        CLOUDY    66  60  81 W7        29.95S
DUNKIRK        CLOUDY    65  62  90 CALM      29.96F
JAMESTOWN      PTCLDY    63  55  77 W3        30.00F
WELLSVILLE     PTCLDY    61  53  75 W5        30.00F
ROCHESTER      CLOUDY    64  62  93 W3        29.93F
PENN YAN       CLOUDY    64  58  80 SW6       29.93F
$$

             KEY
       WCI = WIND CHILL INDEX
       VSB = VISIBILITY
       HX  = HEAT INDEX
$$



USA.gov is the U.S. government's official web portal to all federal, state and local government web resources and services.